Vorticity
2 3 3 1 0 -1 1 2 2 -0 -2 1 3 4 4 5 4 4 3 3 4 3 4 4 4 5 5 5 4 4 4 5 5 5 7 8 7 6 4 3 2 2 3 4 5 5 4 4 3 2 2 2 2 3 3 4 4 4 4 5 6 6 6 5 5 5 5 5 5 5 5 4 4 4 4 4 4 3 3 3 3 3 3 3 3 3 3 3
2 4 3 3 3 2 2 2 5 4 2 -1 0 3 2 3 4 5 4 3 4 4 6 6 6 6 6 6 6 6 5 5 5 2 2 2 2 2 3 3 4 4 3 4 4 5 5 5 5 5 5 5 5 5 5 5 4 5 5 5 6 5 5 5 4 4 4 3 3 3 3 3 3 3 3 3 3 2 3 3 3 3 2 2 2 3 4 4
1 2 2 2 3 3 3 2 3 4 4 3 2 3 3 4 4 5 6 5 6 6 7 8 9 9 8 8 8 8 7 7 8 6 6 4 4 4 5 6 6 6 7 7 6 7 7 7 7 6 6 6 6 6 6 6 5 5 5 5 5 5 5 4 4 3 4 3 3 4 3 3 3 3 3 3 4 4 4 4 5 4 5 5 6 6 6 6
1 1 1 1 2 1 3 2 2 1 2 3 3 4 4 5 6 7 7 7 8 8 8 9 9 10 9 9 8 9 9 9 9 8 8 7 7 7 6 7 7 7 8 7 6 6 6 6 6 6 7 7 7 7 6 6 5 5 5 5 5 5 4 4 4 4 4 4 4 4 4 5 5 6 7 7 8 8 9 8 8 8 9 9 10 10 10 10
-0 1 1 1 1 2 2 1 1 2 3 4 5 6 7 8 8 9 9 9 9 9 9 10 10 10 9 9 10 10 10 10 10 10 9 8 8 8 8 8 8 7 6 6 6 7 7 8 8 8 8 7 7 6 5 4 4 5 5 5 6 6 7 7 7 7 7 7 8 9 10 10 10 10 11 11 11 11 11 11 12 12 13 13 13 13 13 13
-0 1 1 1 1 1 1 2 2 2 4 5 6 7 8 9 10 10 10 10 10 10 10 10 10 9 10 11 12 12 11 11 11 11 11 10 9 8 8 7 7 7 7 7 7 8 7 6 6 6 6 5 5 5 5 6 6 8 9 9 9 10 11 11 11 12 12 12 12 12 12 11 11 12 11 10 10 10 11 12 12 13 13 13 13 13 13 13
0 1 1 1 2 2 1 2 3 4 5 6 7 9 9 10 10 10 11 11 12 12 11 10 10 10 11 11 11 10 11 12 12 11 11 9 9 7 7 7 7 7 7 7 6 6 6 6 7 7 7 8 8 7 8 8 9 11 11 10 10 10 10 10 9 9 9 9 9 9 8 8 9 9 9 9 10 11 11 11 12 12 12 12 12 11 11 11
1 1 0 1 2 1 1 2 4 4 6 7 8 9 10 10 11 12 12 13 13 12 12 11 10 10 9 8 8 8 8 9 9 9 9 8 8 7 6 6 6 6 5 6 6 7 7 8 8 8 9 10 9 10 10 10 11 11 10 9 9 9 9 9 9 9 9 9 9 9 8 9 9 8 8 9 10 10 10 9 8 8 8 8 8 8 8 8
1 1 0 1 1 1 1 3 4 4 6 7 8 9 11 13 14 14 13 13 12 11 10 8 8 6 6 6 6 7 7 7 8 7 7 7 7 7 6 6 7 7 7 8 8 9 10 10 10 10 11 10 11 11 11 11 11 10 9 9 10 11 11 11 11 11 10 10 9 9 9 9 8 8 8 9 9 8 7 6 6 5 5 5 5 5 5 5
1 1 1 2 1 2 3 4 5 6 7 7 9 13 16 17 14 13 12 10 9 7 6 5 5 5 6 7 6 7 8 8 8 9 9 9 9 9 9 9 10 10 10 11 11 11 12 12 12 11 11 11 11 10 10 10 10 10 9 9 9 8 8 7 7 7 7 7 7 6 6 6 6 7 7 7 7 6 6 6 6 7 6 6 6 5 4 4
1 2 1 2 2 3 4 4 6 6 8 10 15 18 18 16 12 10 9 7 6 5 6 5 5 6 6 6 7 8 8 8 9 9 10 10 10 11 11 11 12 12 11 10 11 11 10 10 9 9 9 8 8 7 7 8 8 8 7 6 6 5 5 5 6 7 6 6 6 6 6 6 7 8 7 7 7 7 7 7 7 7 7 6 6 6 6 6
2 3 3 3 3 4 4 5 7 8 12 17 19 18 14 11 8 7 6 5 6 5 5 6 6 7 7 8 8 9 9 9 9 10 11 10 10 10 10 11 11 10 9 9 9 8 7 6 7 7 7 7 7 8 7 8 8 7 7 7 7 7 7 7 7 7 6 6 7 7 6 6 9 8 8 8 8 8 7 7 7 6 6 7 6 7 7 6
4 4 3 3 3 4 6 7 8 12 18 19 15 12 9 7 6 5 5 5 5 5 6 6 7 8 8 9 9 9 9 9 9 11 10 9 9 10 9 9 8 8 8 8 7 6 7 7 8 8 8 8 8 8 8 8 8 7 8 7 6 7 6 6 7 6 6 6 7 6 5 6 8 8 8 8 8 8 8 8 8 8 8 7 7 7 7 7
4 2 2 3 3 6 8 8 12 17 18 14 9 8 6 5 5 4 5 6 5 6 6 7 8 9 8 9 9 9 8 9 10 10 8 8 9 9 8 7 6 6 7 8 8 8 9 9 9 9 9 9 8 8 8 7 7 6 6 6 6 7 6 6 6 5 6 6 6 6 6 7 8 8 8 8 8 8 8 8 8 8 8 8 8 8 8 8
1 3 3 3 5 7 8 11 17 17 12 9 7 5 5 5 4 5 6 6 5 6 7 8 9 7 7 9 8 8 9 9 9 8 9 8 7 6 6 7 8 9 9 9 10 9 9 9 9 9 8 7 6 6 6 5 5 5 6 6 7 6 6 6 6 7 8 8 7 8 8 8 9 9 8 8 8 8 8 8 8 8 8 7 7 7 7 7
2 3 2 4 7 8 12 17 17 11 8 8 6 5 5 4 4 6 6 5 6 8 8 8 7 7 8 9 8 9 10 8 7 8 10 8 7 7 9 10 10 10 10 10 10 8 8 8 7 6 5 5 5 5 5 5 5 6 6 7 7 7 8 8 9 9 9 8 9 9 10 10 10 10 10 10 10 10 10 9 9 9 9 8 8 8 8 7
3 2 3 6 7 12 19 17 11 7 7 6 5 5 4 5 6 6 6 6 7 7 7 7 7 7 8 8 9 10 8 6 6 8 10 10 10 11 12 11 11 11 11 9 6 4 3 3 4 4 4 4 5 6 5 6 6 7 7 7 8 8 8 10 10 10 9 10 10 10 11 11 11 10 10 10 9 9 9 8 8 7 7 7 7 7 7 8
1 2 5 7 12 20 19 10 7 6 5 4 5 5 5 7 7 6 7 8 7 7 7 7 7 8 8 9 9 7 6 8 10 11 11 11 11 11 10 7 8 8 6 5 4 2 1 2 3 4 5 5 6 6 6 7 7 8 8 8 9 9 10 10 10 11 11 11 11 10 10 9 8 8 7 7 6 6 5 5 5 5 5 5 5 6 6 7
1 5 7 12 21 21 11 5 6 5 4 5 5 5 7 7 7 8 9 7 7 7 7 8 8 8 7 8 8 7 9 12 11 12 11 11 10 8 5 3 3 2 1 3 4 3 3 3 4 5 6 7 7 8 8 8 8 9 10 10 11 12 12 12 11 11 10 9 9 8 7 7 7 7 6 6 6 6 6 6 7 6 6 6 7 7 7 8
4 6 11 20 22 12 6 5 5 4 5 5 5 7 7 7 8 8 7 6 7 8 9 9 7 7 7 9 10 11 12 12 11 11 10 9 7 3 2 2 2 2 3 3 3 5 6 6 7 7 8 9 9 10 9 10 11 12 13 12 12 11 10 10 9 8 8 8 8 8 8 8 7 7 7 8 8 9 9 9 9 10 10 10 11 11 12 12
5 10 19 22 13 6 6 5 4 5 5 5 7 8 6 7 9 7 6 8 9 9 8 6 6 8 11 12 13 12 12 10 9 9 4 1 3 1 1 2 3 4 4 4 6 8 8 8 9 9 10 11 11 11 12 13 13 13 11 10 9 9 8 8 8 8 9 8 8 8 8 8 7 8 9 9 9 9 9 10 11 12 13 14 14 15 15 15
9 18 22 14 6 6 6 4 5 5 5 7 7 6 7 8 8 6 7 9 9 8 5 6 11 12 12 13 13 12 11 8 4 4 -0 -3 2 4 2 3 4 5 5 6 9 9 9 10 10 11 11 12 12 12 12 11 10 9 9 8 8 9 8 9 9 9 8 8 8 7 7 8 8 9 9 10 11 11 12 14 14 15 16 16 15 16 16 16
16 21 16 6 4 5 4 4 5 5 7 7 6 7 9 8 7 8 8 9 9 6 6 12 14 13 12 12 12 7 5 5 2 1 1 -0 4 4 3 5 6 7 8 10 11 10 10 10 10 10 11 11 11 10 10 9 9 9 9 9 9 9 9 9 9 8 9 8 8 9 9 11 12 13 15 15 16 16 17 18 19 19 20 19 19 20 20 20
21 17 7 4 6 5 4 5 5 7 7 6 7 9 7 6 8 10 8 8 8 7 12 16 11 12 13 9 8 2 -3 1 3 1 2 2 5 5 5 8 9 10 11 11 10 9 10 10 9 11 11 11 11 10 10 10 10 10 9 9 9 10 10 9 9 9 9 10 11 13 14 16 18 19 19 19 20 22 23 24 24 24 24 24 24 24 23 23
18 8 4 5 5 4 4 6 6 7 6 7 9 7 7 9 10 8 7 9 11 13 15 11 9 13 10 2 2 0 -2 2 3 1 3 5 7 7 9 11 10 11 10 9 9 9 10 10 11 12 11 11 10 10 11 10 10 9 9 10 10 10 10 9 10 10 11 13 15 16 16 19 22 21 22 24 27 28 27 26 25 24 24 23 23 22 21 22
10 3 5 5 4 4 6 7 6 6 7 8 8 7 10 9 7 8 10 14 14 13 12 9 12 11 2 -2 1 1 1 3 2 4 7 8 7 8 10 11 10 10 9 8 10 9 10 10 11 12 11 11 11 11 11 10 10 11 11 11 10 9 9 10 12 13 13 14 15 15 16 21 23 21 23 26 27 26 26 25 24 23 22 20 20 20 20 21
4 4 6 4 5 6 7 6 6 8 9 9 9 10 9 7 9 13 14 15 13 11 9 8 10 5 -3 0 3 2 4 3 4 8 7 6 8 10 11 10 9 10 9 9 11 10 11 11 11 11 11 11 11 10 11 11 11 11 10 9 9 10 11 13 13 13 13 13 14 15 16 19 20 18 18 21 21 22 24 24 23 22 21 18 17 16 16 16
3 5 5 5 6 7 7 7 8 10 10 11 10 8 8 10 14 14 12 11 11 8 6 4 3 1 -0 2 2 3 5 4 6 9 7 10 12 12 11 9 9 10 10 10 11 11 11 11 10 11 12 12 11 11 12 11 10 10 10 10 11 12 12 12 12 11 12 12 13 13 13 16 17 14 13 15 15 16 18 20 20 20 19 18 15 14 13 12
4 5 5 6 7 7 9 10 11 12 11 10 8 8 12 13 12 12 9 9 8 4 2 2 0 -0 3 3 2 4 6 6 9 9 10 13 11 9 9 9 9 10 10 11 11 11 11 11 11 12 12 12 11 12 10 9 10 9 10 11 12 12 12 11 11 11 11 11 11 11 11 12 12 10 10 11 10 11 12 13 14 14 15 15 15 14 13 12
5 5 6 8 8 9 11 12 13 11 9 8 9 12 13 10 10 11 8 6 5 2 2 3 1 2 4 3 4 7 8 9 11 10 10 10 8 9 10 9 10 10 11 12 11 11 11 11 11 11 11 11 11 10 10 9 10 10 11 12 12 11 10 10 11 11 10 11 11 11 12 12 11 9 9 10 10 9 10 10 11 11 11 13 14 14 15 15
5 6 8 8 10 13 14 13 11 7 8 11 13 13 10 9 10 8 5 5 4 2 3 2 2 4 5 5 8 11 12 12 12 11 10 9 8 9 8 9 10 11 11 12 11 11 12 11 12 12 11 11 11 11 11 11 11 11 13 13 12 11 11 12 12 12 11 11 10 12 13 12 12 11 11 11 10 10 10 9 9 10 10 10 10 11 12 12
7 8 9 11 14 16 11 9 9 9 12 13 11 11 9 8 7 3 2 3 2 2 4 4 4 7 7 9 11 11 11 11 11 12 11 10 11 10 10 11 11 11 11 11 12 12 12 11 12 12 11 12 12 11 11 11 12 13 14 11 10 10 11 11 11 12 12 10 10 12 12 11 11 11 10 10 10 9 9 9 8 8 9 9 8 8 8 8
9 9 12 16 15 11 7 9 12 12 13 11 8 9 9 5 4 3 3 2 2 4 6 5 7 9 10 11 11 10 10 10 9 9 9 9 10 11 12 12 11 12 12 12 13 12 11 12 12 11 11 11 10 10 11 11 11 12 10 9 9 10 10 9 10 12 11 9 10 11 11 11 10 10 9 8 9 9 8 8 8 7 7 7 6 6 7 6
11 14 17 13 9 9 10 13 13 11 11 9 7 6 5 4 3 3 4 3 3 6 7 8 9 11 11 11 10 9 10 10 10 10 9 10 11 11 11 11 11 12 12 13 12 12 12 12 11 11 11 10 10 10 10 10 11 11 10 9 11 11 11 11 11 12 10 8 9 9 10 11 9 8 8 7 7 7 6 6 5 5 5 5 4 4 5 5
15 15 12 8 9 13 13 11 9 9 10 8 6 5 3 3 3 3 4 5 6 9 9 8 9 10 10 10 10 11 10 10 10 10 11 11 11 11 11 11 11 12 12 12 12 12 12 11 11 12 11 10 11 11 10 11 11 11 10 10 11 11 11 10 10 10 9 8 8 7 7 8 8 7 7 6 6 5 4 4 3 3 4 4 4 2 3 3
14 9 8 10 13 12 10 9 8 8 7 5 4 4 4 5 4 4 6 7 8 9 8 8 9 9 10 10 10 11 10 10 10 10 10 10 10 11 11 11 11 12 12 12 11 11 11 11 11 10 10 11 10 10 10 10 10 10 10 10 10 10 8 8 9 8 7 7 7 6 7 7 7 6 4 5 6 4 3 4 4 3 4 4 5 4 4 4
9 8 11 13 11 9 9 9 7 5 5 4 4 4 4 6 5 6 8 8 8 8 8 10 11 11 11 11 10 10 9 9 9 9 9 10 10 9 10 10 11 12 12 12 12 11 11 12 11 10 11 10 9 10 10 9 9 10 9 9 9 8 6 6 7 6 5 6 6 5 8 9 6 6 6 3 5 6 5 5 4 4 4 5 6 5 5 6
10 12 11 9 8 9 9 8 6 4 3 3 4 4 5 6 7 8 8 8 8 9 11 12 12 12 10 10 9 9 9 9 9 9 9 9 9 8 9 10 12 12 11 12 12 11 12 12 11 11 10 9 10 10 9 9 9 8 8 8 6 5 6 6 6 5 5 6 4 2 8 12 7 7 9 4 3 7 8 9 7 5 5 5 7 7 6 7
11 10 8 8 9 8 7 7 5 4 4 4 4 5 7 8 8 8 8 9 10 11 12 12 10 10 9 9 9 8 9 8 7 8 8 8 9 10 11 11 11 11 10 12 11 10 11 11 10 11 10 9 9 8 8 8 7 8 8 6 5 5 5 5 5 6 4 4 4 0 6 14 7 2 7 7 4 4 6 8 8 8 7 4 5 6 6 7
8 8 8 8 7 5 5 5 4 5 5 5 5 6 9 8 7 9 9 10 11 11 11 10 8 9 9 8 8 7 8 8 7 9 9 9 11 12 12 11 10 10 10 11 10 10 12 10 9 10 9 8 8 7 8 7 5 7 6 5 6 5 5 6 4 5 4 4 6 -0 3 14 6 -4 4 9 6 3 3 5 6 8 8 5 5 5 5 7
8 8 9 9 7 6 5 4 5 6 5 5 7 8 8 8 8 10 10 9 10 9 9 7 7 9 8 8 9 9 10 9 10 11 10 11 12 11 12 10 9 10 10 10 9 8 10 8 7 9 7 7 8 6 7 6 5 6 5 5 6 4 5 6 4 5 4 4 7 -0 1 14 7 -3 6 12 7 3 2 4 5 6 8 6 5 6 6 6
9 8 8 7 7 7 5 3 5 5 4 7 8 8 8 8 9 10 10 9 9 8 7 6 8 9 9 11 12 12 12 12 12 12 12 13 12 11 11 9 9 9 9 9 9 8 8 6 6 7 4 6 7 5 6 6 4 5 5 5 5 3 5 4 5 6 2 6 10 -2 -0 14 6 -1 9 12 4 2 2 4 5 4 7 7 4 6 7 5
8 6 7 6 6 8 7 5 6 7 7 8 8 8 8 8 9 10 10 9 8 7 7 8 9 11 12 13 12 12 14 15 14 13 13 13 12 11 10 9 9 9 9 10 9 8 8 6 6 6 5 5 5 4 5 6 4 5 5 5 4 4 4 3 6 5 3 10 9 -4 2 15 4 -1 10 8 1 1 2 4 5 3 5 6 3 5 6 6
6 6 7 7 7 9 7 7 8 8 9 8 6 8 8 8 10 10 10 9 7 7 8 9 11 11 11 12 11 14 18 17 15 14 13 12 11 10 10 9 9 8 8 9 7 7 7 6 6 6 6 6 5 5 5 5 6 6 4 5 6 5 4 5 6 5 5 9 4 -4 5 11 1 0 9 5 -0 1 3 4 5 4 5 6 4 5 6 7
6 6 6 6 8 9 6 6 7 7 8 7 6 7 9 10 11 11 10 8 6 8 10 11 11 10 10 10 11 15 17 17 16 15 14 14 11 10 10 9 8 8 8 8 6 6 7 6 5 6 6 5 4 5 5 4 6 6 5 5 6 5 5 5 4 4 5 5 3 3 6 4 1 5 8 5 0 0 3 5 6 6 5 5 6 7 9 9
8 7 7 7 8 7 6 7 7 6 7 6 6 8 9 11 11 10 10 8 7 9 10 10 10 9 9 9 9 12 13 13 15 15 15 15 13 12 11 10 9 10 9 8 8 7 8 7 5 5 6 5 5 5 5 5 5 5 6 6 6 6 5 4 4 4 3 3 5 8 5 1 4 8 8 5 1 1 6 8 8 8 6 6 9 10 10 10
9 9 9 8 8 7 7 7 5 5 7 6 6 7 8 10 11 10 10 9 8 9 9 9 10 9 8 8 8 9 9 9 11 12 13 14 13 13 12 11 11 11 10 10 9 9 11 10 6 7 8 6 6 6 5 6 6 5 7 7 7 7 5 5 6 3 1 2 3 5 5 2 4 8 6 4 4 7 9 9 8 8 8 8 11 11 10 9
8 8 7 6 6 7 6 5 5 6 7 7 7 6 7 9 10 9 10 10 9 9 9 8 8 8 7 8 8 8 9 9 8 9 10 11 12 12 12 12 12 11 11 11 9 9 11 11 9 11 12 8 6 5 5 7 6 6 9 9 9 9 7 6 6 3 3 4 3 5 6 5 7 8 6 7 10 11 9 9 10 9 10 11 10 9 8 9
7 6 5 5 5 6 6 6 7 7 6 6 6 6 6 6 7 7 7 8 8 9 9 7 8 8 6 7 8 7 9 9 8 9 9 9 10 10 11 12 11 12 12 12 11 9 9 11 9 10 16 16 9 5 5 5 5 9 12 10 9 9 8 6 5 7 7 7 7 8 6 7 11 10 10 13 13 10 9 10 10 10 11 10 8 8 10 12
6 4 6 6 4 6 7 7 7 7 7 7 6 5 5 4 5 5 4 5 6 6 7 7 7 8 7 6 7 7 8 8 7 8 8 9 9 8 10 11 11 12 12 12 14 12 9 12 10 7 16 20 13 7 8 5 5 11 14 12 9 9 7 6 7 10 10 9 10 9 5 9 15 13 12 13 10 8 9 9 9 9 9 8 7 9 11 13
4 4 8 10 7 5 7 8 8 7 7 7 6 5 5 4 4 5 3 3 4 3 4 5 5 6 6 6 6 6 7 7 6 6 7 8 8 7 8 9 9 11 11 11 14 14 12 14 13 10 14 19 15 10 10 10 12 15 14 11 10 8 7 9 10 12 12 11 11 9 7 12 16 13 10 8 7 7 8 7 8 9 8 8 9 10 12 12
6 5 6 10 8 5 6 8 8 7 6 6 5 4 5 4 4 5 4 4 4 3 3 3 3 4 4 5 6 6 7 7 7 6 6 7 7 6 6 6 6 7 8 8 10 12 13 14 15 13 14 19 17 10 11 16 19 20 17 11 9 10 11 13 14 14 14 12 9 8 11 14 13 9 7 7 8 8 8 8 10 10 8 8 10 12 14 14
Height
5786 5787 5788 5789 5789 5790 5790 5791 5791 5791 5792 5793 5793 5793 5793 5793 5793 5793 5793 5793 5793 5792 5792 5791 5791 5790 5790 5790 5789 5789 5789 5789 5789 5788 5788 5788 5788 5788 5788 5787 5787 5787 5787 5787 5787 5787 5787 5786 5785 5785 5784 5784 5783 5783 5782 5782 5781 5781 5781 5781 5782 5782 5780 5778 5776 5775 5775 5776 5775 5774 5774 5774 5773 5773 5773 5772 5772 5771 5770 5769 5768 5768 5767 5765 5764 5764 5764 5763
5787 5788 5789 5789 5790 5790 5790 5791 5792 5792 5792 5793 5793 5793 5793 5793 5792 5792 5792 5792 5791 5791 5790 5790 5790 5789 5789 5788 5788 5788 5788 5788 5787 5787 5787 5787 5787 5787 5787 5786 5786 5786 5785 5785 5785 5785 5785 5785 5784 5783 5782 5782 5781 5781 5780 5780 5779 5778 5778 5779 5780 5779 5777 5775 5773 5772 5772 5772 5772 5771 5771 5770 5769 5769 5768 5768 5767 5767 5766 5765 5764 5763 5762 5760 5759 5759 5759 5758
5789 5789 5790 5790 5791 5791 5792 5792 5792 5793 5793 5793 5793 5793 5792 5792 5792 5792 5791 5791 5790 5790 5789 5789 5788 5788 5787 5787 5787 5786 5786 5786 5786 5786 5786 5786 5786 5785 5785 5784 5784 5784 5784 5783 5783 5783 5783 5783 5782 5781 5780 5780 5779 5778 5777 5777 5776 5776 5776 5777 5777 5776 5774 5773 5771 5770 5769 5769 5768 5767 5767 5766 5765 5764 5764 5763 5763 5762 5761 5760 5759 5758 5757 5756 5755 5754 5754 5753
5790 5791 5791 5792 5792 5793 5793 5793 5794 5794 5794 5793 5793 5792 5792 5791 5791 5790 5790 5790 5789 5788 5788 5787 5787 5786 5786 5785 5785 5785 5785 5784 5784 5784 5784 5784 5784 5784 5783 5783 5782 5782 5782 5781 5781 5781 5780 5780 5780 5779 5778 5777 5777 5776 5774 5774 5774 5773 5773 5773 5773 5772 5771 5770 5768 5767 5766 5765 5764 5763 5762 5762 5761 5760 5759 5758 5758 5757 5756 5755 5754 5753 5752 5752 5750 5749 5748 5747
5792 5793 5793 5793 5793 5794 5794 5794 5794 5794 5793 5793 5792 5792 5791 5790 5790 5789 5788 5788 5788 5787 5787 5786 5786 5785 5784 5784 5784 5783 5783 5783 5783 5782 5782 5782 5782 5782 5781 5781 5781 5780 5780 5779 5779 5778 5778 5777 5777 5776 5776 5775 5774 5773 5772 5771 5770 5770 5770 5769 5768 5768 5767 5766 5765 5763 5762 5761 5760 5759 5758 5757 5756 5755 5754 5753 5753 5752 5751 5750 5749 5749 5748 5747 5745 5743 5742 5741
5793 5793 5793 5794 5794 5793 5793 5793 5793 5793 5792 5792 5791 5790 5790 5789 5789 5788 5787 5787 5786 5786 5785 5785 5784 5784 5783 5783 5782 5782 5782 5782 5781 5781 5781 5780 5780 5780 5779 5779 5779 5778 5778 5777 5777 5776 5775 5775 5774 5773 5773 5772 5771 5770 5769 5768 5767 5767 5766 5765 5764 5764 5763 5762 5761 5760 5759 5757 5756 5755 5754 5753 5752 5751 5750 5749 5748 5747 5746 5745 5745 5744 5743 5741 5740 5738 5737 5736
5793 5793 5793 5793 5794 5793 5793 5793 5792 5792 5791 5791 5790 5790 5789 5789 5788 5787 5787 5786 5786 5785 5785 5784 5783 5783 5782 5782 5782 5781 5781 5781 5780 5780 5779 5779 5778 5778 5777 5777 5777 5776 5776 5775 5775 5774 5773 5772 5772 5771 5770 5769 5768 5767 5766 5765 5764 5764 5763 5762 5761 5760 5759 5758 5757 5756 5755 5754 5753 5751 5750 5749 5748 5747 5746 5744 5743 5742 5742 5741 5740 5739 5738 5736 5735 5733 5732 5731
5793 5793 5793 5793 5793 5793 5793 5792 5792 5792 5791 5791 5790 5790 5789 5788 5788 5787 5786 5786 5785 5784 5784 5783 5783 5782 5782 5782 5781 5781 5781 5780 5779 5779 5778 5778 5777 5776 5776 5776 5775 5774 5774 5773 5773 5772 5771 5770 5769 5768 5767 5766 5765 5764 5763 5762 5761 5760 5759 5758 5757 5756 5755 5754 5753 5752 5751 5750 5749 5747 5746 5745 5744 5742 5741 5740 5739 5738 5737 5736 5735 5733 5732 5731 5730 5728 5727 5726
5793 5793 5793 5793 5793 5792 5792 5792 5792 5791 5791 5790 5789 5789 5788 5787 5787 5786 5785 5785 5784 5784 5783 5783 5782 5782 5782 5782 5781 5781 5780 5779 5779 5778 5777 5776 5776 5775 5775 5774 5773 5772 5772 5771 5771 5770 5769 5768 5767 5766 5764 5763 5762 5761 5760 5759 5758 5758 5756 5755 5754 5753 5752 5751 5750 5749 5748 5746 5745 5744 5743 5741 5740 5739 5737 5736 5735 5734 5732 5731 5730 5729 5727 5726 5725 5723 5722 5721
5792 5792 5792 5792 5792 5792 5792 5791 5791 5790 5789 5788 5788 5787 5787 5786 5785 5785 5784 5784 5783 5783 5782 5782 5782 5782 5782 5781 5780 5780 5779 5778 5778 5777 5776 5776 5775 5774 5773 5773 5772 5771 5770 5770 5769 5768 5767 5766 5765 5764 5762 5761 5760 5759 5758 5757 5756 5755 5754 5753 5752 5750 5749 5748 5747 5746 5744 5743 5742 5740 5739 5738 5736 5735 5733 5732 5731 5729 5728 5726 5725 5724 5723 5722 5720 5719 5717 5716
5792 5792 5792 5792 5791 5791 5791 5790 5789 5789 5788 5787 5786 5786 5785 5784 5784 5784 5783 5783 5783 5782 5782 5782 5782 5781 5781 5780 5779 5778 5778 5777 5776 5776 5775 5774 5774 5773 5772 5772 5771 5770 5769 5768 5767 5766 5765 5764 5763 5762 5761 5760 5758 5757 5756 5755 5754 5752 5751 5750 5749 5747 5746 5745 5744 5742 5741 5739 5738 5736 5735 5734 5733 5731 5729 5728 5726 5725 5723 5722 5721 5719 5718 5717 5715 5714 5712 5711
5792 5792 5792 5791 5791 5790 5790 5789 5789 5788 5787 5786 5785 5785 5784 5784 5784 5783 5783 5783 5782 5782 5782 5781 5781 5780 5780 5779 5778 5777 5776 5776 5775 5774 5774 5773 5772 5771 5771 5770 5769 5768 5767 5766 5765 5764 5763 5762 5761 5760 5759 5758 5756 5755 5754 5752 5751 5749 5748 5746 5745 5744 5742 5741 5740 5738 5736 5735 5734 5732 5730 5730 5728 5726 5724 5723 5721 5720 5718 5717 5715 5714 5713 5711 5710 5708 5707 5706
5793 5792 5792 5791 5791 5790 5789 5789 5788 5787 5786 5785 5785 5784 5784 5784 5783 5783 5783 5782 5782 5781 5781 5780 5780 5779 5779 5778 5777 5776 5775 5774 5773 5773 5772 5771 5771 5770 5769 5768 5768 5767 5765 5764 5764 5763 5761 5760 5759 5758 5756 5755 5754 5752 5751 5750 5748 5746 5745 5743 5741 5740 5738 5737 5735 5734 5732 5731 5730 5728 5726 5726 5724 5722 5720 5718 5716 5715 5713 5712 5710 5708 5707 5705 5704 5702 5701 5699
5793 5792 5792 5791 5790 5789 5789 5788 5787 5786 5786 5785 5784 5784 5784 5783 5783 5782 5782 5781 5781 5780 5780 5779 5779 5778 5777 5777 5776 5775 5774 5773 5772 5772 5771 5770 5769 5769 5768 5767 5766 5765 5764 5763 5762 5761 5760 5758 5757 5755 5754 5753 5751 5750 5748 5747 5745 5743 5742 5740 5738 5736 5735 5734 5732 5730 5729 5727 5726 5724 5722 5722 5720 5717 5716 5713 5711 5710 5708 5706 5704 5703 5701 5699 5698 5696 5695 5693
5792 5792 5791 5790 5789 5789 5788 5787 5786 5786 5785 5785 5784 5784 5784 5783 5783 5782 5781 5781 5780 5780 5779 5778 5778 5777 5777 5776 5775 5774 5773 5772 5771 5771 5770 5769 5768 5767 5766 5765 5764 5763 5762 5761 5760 5759 5757 5756 5755 5753 5752 5750 5749 5747 5746 5744 5742 5741 5739 5737 5735 5733 5732 5730 5728 5726 5725 5723 5722 5719 5718 5717 5715 5713 5711 5708 5706 5705 5703 5701 5699 5697 5696 5694 5692 5690 5688 5687
5791 5791 5790 5789 5789 5788 5787 5786 5786 5786 5785 5785 5785 5784 5784 5783 5782 5782 5781 5780 5780 5779 5778 5778 5777 5776 5776 5775 5774 5773 5772 5771 5770 5770 5769 5769 5767 5766 5765 5764 5763 5762 5760 5759 5758 5757 5756 5754 5753 5751 5750 5748 5746 5745 5743 5741 5740 5738 5736 5734 5732 5730 5728 5727 5725 5723 5721 5719 5717 5715 5713 5712 5710 5708 5706 5703 5701 5699 5697 5695 5693 5692 5690 5688 5686 5684 5682 5680
5791 5790 5790 5789 5788 5787 5787 5786 5786 5786 5785 5785 5785 5784 5784 5783 5782 5781 5781 5780 5779 5778 5777 5777 5776 5775 5775 5774 5773 5772 5772 5771 5770 5769 5768 5767 5766 5765 5764 5763 5762 5760 5759 5758 5757 5755 5754 5752 5751 5749 5748 5746 5744 5742 5740 5738 5736 5735 5733 5731 5728 5726 5725 5723 5721 5719 5717 5715 5713 5711 5709 5708 5706 5703 5701 5699 5697 5694 5692 5690 5688 5686 5684 5682 5680 5678 5676 5674
5790 5790 5789 5788 5788 5787 5786 5786 5786 5786 5785 5785 5785 5784 5784 5783 5782 5781 5780 5779 5778 5778 5777 5776 5775 5775 5774 5773 5772 5771 5770 5769 5768 5767 5766 5765 5764 5763 5762 5761 5760 5759 5758 5756 5755 5753 5752 5750 5748 5747 5745 5743 5741 5739 5737 5735 5733 5731 5729 5727 5725 5723 5721 5719 5717 5715 5714 5711 5710 5708 5705 5704 5701 5699 5697 5694 5692 5690 5688 5685 5683 5681 5678 5676 5674 5672 5670 5668
5790 5789 5788 5788 5787 5787 5786 5786 5786 5785 5785 5785 5784 5784 5783 5782 5781 5780 5779 5779 5778 5777 5776 5776 5775 5774 5773 5772 5771 5770 5769 5768 5767 5766 5765 5764 5763 5762 5761 5760 5759 5758 5756 5754 5753 5751 5750 5748 5746 5744 5742 5740 5738 5736 5734 5731 5729 5727 5725 5723 5722 5720 5718 5716 5714 5712 5710 5708 5706 5704 5702 5699 5697 5695 5693 5690 5688 5685 5683 5680 5678 5675 5673 5670 5668 5666 5663 5661
5789 5788 5788 5787 5787 5786 5786 5786 5785 5785 5785 5784 5784 5783 5782 5781 5781 5780 5779 5778 5777 5777 5776 5775 5774 5773 5772 5771 5770 5769 5768 5767 5766 5766 5765 5763 5762 5761 5760 5759 5757 5756 5754 5752 5751 5749 5747 5745 5743 5741 5738 5736 5734 5732 5730 5728 5726 5724 5722 5720 5719 5717 5715 5713 5711 5709 5707 5705 5703 5700 5698 5695 5692 5690 5688 5685 5683 5680 5677 5675 5672 5669 5666 5664 5662 5659 5657 5655
5788 5788 5787 5787 5786 5786 5786 5785 5785 5784 5784 5783 5783 5782 5781 5781 5780 5779 5778 5778 5777 5776 5775 5774 5773 5772 5771 5770 5769 5768 5767 5766 5766 5765 5764 5763 5761 5760 5759 5757 5755 5753 5751 5749 5747 5745 5744 5741 5739 5737 5735 5733 5731 5729 5727 5725 5723 5721 5719 5717 5715 5714 5712 5710 5708 5706 5704 5701 5699 5697 5694 5691 5688 5686 5683 5680 5677 5674 5671 5668 5665 5663 5660 5658 5655 5653 5650 5648
5788 5787 5787 5786 5786 5786 5785 5785 5784 5784 5783 5782 5782 5781 5780 5780 5779 5778 5777 5777 5776 5775 5774 5773 5772 5771 5770 5769 5769 5768 5767 5766 5765 5764 5763 5762 5760 5758 5757 5755 5753 5751 5749 5746 5744 5742 5740 5738 5736 5734 5732 5730 5727 5726 5724 5722 5720 5718 5716 5714 5712 5710 5708 5706 5703 5701 5699 5697 5695 5693 5690 5687 5684 5681 5677 5674 5671 5668 5665 5662 5659 5656 5653 5651 5649 5646 5644 5642
5787 5786 5786 5786 5785 5785 5785 5784 5784 5783 5782 5782 5781 5781 5780 5779 5778 5778 5777 5776 5775 5774 5773 5772 5771 5770 5769 5769 5768 5767 5766 5765 5764 5763 5762 5760 5758 5756 5754 5752 5750 5748 5746 5744 5741 5739 5737 5735 5733 5731 5729 5726 5724 5722 5720 5718 5716 5714 5712 5710 5708 5706 5704 5702 5699 5697 5695 5692 5690 5688 5685 5682 5678 5675 5672 5668 5665 5661 5658 5655 5652 5650 5647 5645 5643 5641 5639 5637
5786 5786 5786 5785 5785 5784 5784 5784 5783 5783 5782 5781 5781 5780 5779 5778 5778 5777 5776 5775 5774 5773 5772 5771 5770 5769 5769 5768 5767 5766 5765 5764 5763 5761 5760 5758 5756 5754 5752 5750 5747 5745 5743 5741 5738 5736 5734 5732 5730 5728 5726 5723 5721 5719 5717 5714 5712 5710 5708 5706 5704 5702 5699 5697 5695 5693 5690 5687 5684 5682 5680 5676 5672 5669 5666 5662 5659 5656 5652 5650 5647 5644 5642 5640 5638 5635 5633 5632
5785 5785 5785 5785 5784 5784 5784 5783 5783 5782 5781 5781 5780 5779 5779 5778 5777 5776 5775 5774 5773 5772 5772 5771 5770 5769 5768 5768 5767 5765 5764 5763 5761 5759 5757 5755 5753 5751 5749 5747 5745 5742 5740 5738 5736 5734 5732 5729 5727 5725 5723 5721 5718 5716 5714 5712 5709 5707 5705 5703 5700 5698 5695 5693 5691 5688 5686 5683 5680 5677 5674 5671 5667 5663 5660 5657 5654 5650 5647 5645 5642 5639 5637 5635 5633 5631 5629 5627
5785 5785 5785 5785 5784 5784 5783 5783 5782 5781 5781 5780 5779 5779 5778 5777 5776 5775 5774 5774 5773 5772 5771 5770 5769 5768 5768 5767 5766 5764 5763 5761 5759 5757 5755 5753 5751 5749 5746 5744 5742 5739 5737 5735 5733 5731 5729 5726 5724 5722 5720 5718 5716 5713 5711 5709 5706 5704 5701 5699 5697 5695 5692 5690 5687 5684 5681 5678 5676 5673 5670 5667 5663 5659 5656 5653 5649 5646 5643 5640 5638 5635 5633 5631 5629 5627 5625 5624
5784 5784 5784 5784 5784 5784 5783 5782 5781 5781 5780 5779 5779 5778 5777 5776 5775 5774 5774 5773 5772 5771 5771 5770 5769 5768 5767 5766 5765 5763 5761 5759 5757 5755 5753 5751 5748 5746 5744 5741 5739 5737 5735 5733 5730 5728 5726 5723 5721 5719 5717 5715 5712 5710 5708 5706 5703 5701 5698 5696 5694 5691 5689 5686 5684 5681 5678 5675 5672 5669 5667 5664 5660 5656 5652 5649 5646 5643 5640 5637 5635 5633 5630 5628 5626 5624 5622 5621
5784 5784 5784 5784 5784 5783 5782 5782 5781 5780 5779 5779 5778 5777 5776 5775 5775 5774 5773 5773 5772 5771 5770 5769 5768 5767 5766 5764 5763 5761 5759 5757 5755 5753 5750 5748 5746 5744 5742 5739 5737 5735 5732 5730 5727 5725 5722 5720 5718 5716 5714 5712 5709 5707 5705 5703 5700 5698 5696 5693 5691 5688 5686 5683 5681 5678 5675 5672 5669 5666 5663 5660 5657 5654 5651 5647 5644 5641 5638 5635 5633 5630 5628 5626 5623 5622 5620 5618
5783 5783 5784 5783 5783 5783 5782 5781 5780 5780 5779 5778 5778 5777 5776 5775 5774 5773 5773 5772 5771 5771 5770 5769 5768 5766 5765 5763 5761 5760 5758 5755 5753 5750 5748 5746 5744 5741 5739 5737 5734 5732 5729 5727 5724 5722 5720 5717 5715 5713 5711 5709 5707 5705 5703 5700 5698 5696 5693 5690 5688 5685 5683 5680 5677 5675 5672 5669 5666 5663 5660 5658 5655 5652 5649 5646 5643 5640 5637 5634 5631 5629 5626 5623 5621 5619 5617 5615
5783 5783 5783 5783 5782 5782 5781 5780 5780 5779 5779 5778 5777 5776 5775 5775 5774 5773 5773 5772 5771 5770 5769 5768 5767 5765 5764 5762 5760 5758 5755 5753 5751 5749 5746 5744 5741 5739 5737 5734 5732 5730 5727 5725 5722 5720 5717 5715 5713 5710 5709 5707 5705 5702 5700 5698 5695 5693 5690 5688 5685 5682 5679 5677 5674 5672 5669 5666 5664 5661 5658 5656 5653 5650 5647 5644 5642 5639 5636 5633 5630 5627 5625 5622 5620 5618 5615 5613
5782 5782 5782 5782 5782 5781 5780 5780 5779 5779 5778 5777 5777 5776 5775 5775 5774 5773 5773 5772 5771 5770 5768 5767 5765 5764 5762 5760 5757 5755 5753 5750 5748 5746 5743 5741 5739 5736 5734 5732 5729 5727 5725 5722 5720 5718 5715 5713 5710 5708 5706 5704 5702 5700 5698 5696 5693 5690 5688 5685 5682 5680 5677 5674 5672 5669 5667 5664 5662 5659 5656 5653 5650 5648 5645 5642 5640 5637 5634 5631 5629 5626 5623 5621 5619 5616 5614 5612
5782 5782 5781 5781 5781 5780 5780 5780 5779 5778 5778 5777 5777 5776 5775 5775 5774 5773 5772 5771 5770 5769 5767 5766 5764 5762 5760 5758 5756 5753 5751 5749 5746 5744 5741 5739 5736 5734 5731 5729 5727 5725 5723 5720 5718 5715 5713 5711 5709 5706 5704 5702 5700 5698 5696 5693 5691 5688 5685 5683 5680 5678 5675 5672 5670 5667 5665 5662 5660 5657 5654 5651 5648 5645 5643 5640 5638 5635 5632 5629 5627 5624 5622 5620 5617 5615 5612 5610
5781 5781 5781 5780 5780 5780 5780 5779 5779 5778 5778 5777 5777 5776 5775 5775 5774 5773 5772 5771 5769 5768 5766 5765 5763 5761 5758 5756 5754 5752 5749 5747 5745 5743 5740 5738 5735 5733 5730 5728 5725 5723 5721 5718 5716 5713 5711 5709 5707 5704 5702 5700 5698 5695 5693 5691 5689 5686 5684 5681 5679 5676 5674 5671 5669 5666 5663 5660 5658 5655 5652 5650 5647 5644 5641 5638 5636 5633 5630 5628 5625 5623 5621 5618 5616 5613 5611 5608
5780 5780 5780 5780 5780 5780 5779 5779 5778 5778 5778 5777 5777 5776 5775 5775 5774 5773 5772 5770 5769 5767 5765 5763 5761 5759 5757 5755 5752 5750 5748 5746 5743 5741 5739 5736 5734 5731 5729 5726 5724 5721 5719 5717 5714 5712 5709 5707 5705 5703 5700 5698 5696 5694 5692 5689 5687 5685 5682 5679 5677 5674 5672 5669 5667 5665 5662 5659 5656 5653 5651 5648 5645 5642 5640 5637 5634 5631 5629 5626 5624 5621 5619 5616 5613 5611 5609 5606
5780 5780 5780 5780 5780 5779 5779 5779 5778 5778 5778 5777 5777 5776 5775 5775 5774 5773 5771 5770 5768 5766 5764 5762 5760 5758 5756 5754 5751 5749 5747 5744 5742 5739 5737 5734 5732 5729 5727 5724 5722 5719 5717 5715 5712 5710 5708 5706 5704 5702 5699 5697 5695 5693 5690 5688 5685 5683 5680 5677 5675 5673 5670 5668 5665 5663 5660 5658 5655 5651 5649 5647 5644 5641 5638 5635 5632 5629 5627 5624 5621 5619 5616 5614 5611 5609 5606 5604
5779 5779 5780 5780 5779 5779 5779 5779 5779 5778 5778 5777 5777 5776 5775 5774 5773 5772 5770 5769 5767 5765 5763 5761 5759 5757 5755 5752 5750 5748 5745 5743 5740 5738 5735 5733 5730 5728 5725 5723 5720 5718 5715 5713 5711 5709 5707 5705 5702 5700 5698 5696 5693 5691 5689 5686 5684 5681 5678 5676 5673 5671 5669 5666 5664 5661 5658 5656 5653 5650 5646 5644 5642 5640 5636 5633 5630 5628 5625 5622 5619 5616 5614 5612 5609 5606 5603 5601
5779 5779 5779 5779 5779 5779 5779 5779 5779 5778 5778 5777 5777 5776 5775 5774 5773 5771 5769 5768 5766 5764 5762 5760 5758 5756 5753 5751 5749 5746 5744 5741 5739 5736 5734 5731 5729 5726 5724 5721 5719 5716 5714 5712 5709 5707 5705 5703 5701 5698 5696 5694 5692 5689 5687 5684 5682 5679 5677 5674 5672 5669 5667 5664 5661 5658 5655 5653 5652 5650 5645 5641 5640 5638 5635 5632 5629 5626 5623 5620 5617 5614 5611 5609 5607 5603 5600 5597
5779 5779 5780 5780 5780 5779 5779 5779 5779 5778 5778 5777 5777 5776 5775 5773 5772 5770 5769 5767 5765 5763 5761 5759 5757 5754 5752 5750 5747 5745 5742 5740 5737 5734 5732 5729 5727 5724 5722 5719 5717 5715 5712 5710 5708 5706 5703 5701 5699 5697 5694 5692 5690 5688 5685 5683 5680 5678 5675 5673 5670 5668 5665 5662 5659 5656 5653 5650 5648 5648 5645 5640 5636 5635 5633 5629 5627 5624 5621 5619 5615 5612 5609 5606 5603 5600 5597 5593
5779 5780 5780 5780 5780 5780 5780 5779 5779 5778 5778 5777 5776 5776 5774 5773 5771 5770 5768 5766 5764 5762 5760 5758 5756 5754 5751 5749 5747 5744 5741 5738 5736 5733 5731 5728 5725 5723 5720 5718 5716 5713 5711 5709 5706 5704 5702 5699 5697 5695 5693 5691 5689 5686 5684 5681 5679 5676 5673 5671 5669 5666 5663 5660 5657 5654 5651 5647 5644 5642 5643 5640 5633 5631 5630 5626 5624 5621 5619 5617 5614 5610 5606 5602 5599 5596 5593 5589
5780 5780 5780 5780 5780 5780 5780 5780 5779 5778 5778 5777 5776 5775 5774 5772 5771 5769 5768 5766 5764 5762 5760 5758 5755 5753 5751 5748 5746 5743 5740 5738 5735 5732 5729 5727 5724 5722 5719 5717 5715 5712 5710 5707 5705 5703 5701 5698 5696 5693 5691 5689 5687 5684 5682 5680 5677 5674 5672 5669 5667 5664 5661 5659 5656 5652 5649 5646 5642 5637 5638 5638 5631 5627 5627 5623 5620 5617 5615 5613 5611 5607 5603 5599 5595 5592 5588 5585
5780 5780 5780 5781 5780 5780 5780 5780 5779 5778 5778 5777 5776 5775 5774 5772 5771 5769 5767 5765 5763 5761 5759 5757 5755 5753 5750 5747 5745 5742 5739 5737 5734 5731 5728 5726 5723 5720 5718 5716 5713 5711 5709 5706 5704 5701 5699 5697 5694 5692 5689 5687 5685 5683 5680 5678 5675 5673 5670 5668 5665 5662 5659 5657 5654 5651 5647 5643 5641 5635 5633 5635 5630 5624 5623 5620 5616 5613 5610 5608 5606 5603 5600 5595 5591 5587 5583 5580
5781 5781 5781 5781 5781 5781 5780 5779 5779 5778 5778 5777 5776 5775 5774 5772 5770 5769 5767 5765 5763 5761 5759 5757 5755 5752 5749 5747 5744 5741 5739 5736 5733 5730 5727 5725 5722 5719 5717 5715 5712 5710 5708 5705 5703 5700 5698 5695 5693 5691 5688 5686 5684 5681 5679 5676 5674 5671 5668 5665 5663 5660 5657 5654 5651 5648 5644 5641 5638 5632 5629 5631 5628 5622 5619 5616 5612 5609 5606 5603 5600 5598 5595 5591 5587 5583 5578 5574
5781 5781 5781 5781 5781 5781 5780 5779 5779 5779 5778 5777 5776 5775 5773 5772 5770 5768 5766 5765 5763 5761 5759 5756 5754 5751 5749 5746 5743 5740 5738 5735 5732 5729 5726 5724 5721 5718 5716 5713 5711 5709 5706 5704 5701 5699 5696 5694 5692 5689 5687 5684 5682 5679 5677 5675 5672 5670 5666 5663 5660 5657 5654 5651 5648 5644 5641 5638 5634 5628 5625 5626 5624 5620 5617 5612 5607 5604 5601 5598 5595 5592 5590 5586 5581 5577 5573 5569
5782 5782 5782 5782 5781 5781 5780 5780 5780 5779 5778 5777 5776 5775 5773 5771 5770 5768 5766 5764 5762 5760 5758 5756 5753 5751 5748 5745 5742 5740 5737 5735 5732 5729 5726 5723 5720 5717 5715 5712 5710 5707 5705 5702 5700 5697 5695 5692 5690 5688 5685 5683 5680 5677 5675 5673 5671 5668 5665 5661 5657 5654 5651 5648 5645 5641 5638 5635 5631 5625 5621 5622 5621 5617 5614 5609 5603 5600 5597 5592 5589 5586 5583 5580 5576 5571 5567 5563
5782 5782 5782 5782 5782 5781 5781 5781 5780 5779 5778 5777 5776 5774 5773 5771 5769 5768 5766 5764 5762 5760 5758 5755 5753 5750 5747 5745 5742 5740 5737 5734 5731 5728 5725 5722 5719 5717 5714 5711 5709 5706 5704 5701 5699 5696 5693 5691 5688 5685 5683 5680 5678 5675 5672 5670 5668 5665 5663 5659 5655 5651 5648 5644 5641 5638 5634 5630 5627 5623 5617 5615 5617 5615 5610 5604 5598 5594 5592 5588 5583 5580 5576 5573 5569 5564 5560 5555
5783 5783 5782 5782 5782 5782 5781 5781 5780 5779 5778 5777 5776 5774 5772 5771 5769 5767 5766 5764 5762 5760 5757 5755 5752 5750 5747 5744 5742 5740 5737 5734 5731 5728 5725 5722 5719 5716 5713 5711 5708 5705 5702 5700 5697 5695 5692 5689 5686 5683 5681 5677 5674 5673 5669 5667 5665 5663 5660 5657 5653 5649 5644 5640 5637 5635 5631 5624 5621 5621 5615 5607 5610 5613 5605 5598 5593 5589 5586 5582 5578 5573 5569 5565 5561 5557 5553 5548
5783 5783 5783 5783 5783 5782 5782 5781 5780 5779 5778 5777 5776 5774 5772 5771 5769 5767 5765 5763 5761 5759 5757 5754 5752 5749 5747 5744 5742 5739 5737 5734 5731 5727 5724 5721 5719 5716 5713 5710 5707 5704 5701 5699 5696 5693 5691 5688 5684 5682 5680 5676 5671 5669 5667 5664 5662 5660 5658 5654 5650 5646 5641 5637 5633 5631 5628 5620 5614 5617 5613 5602 5604 5607 5599 5592 5588 5583 5580 5577 5572 5568 5563 5559 5554 5549 5545 5541
5783 5783 5783 5783 5783 5782 5782 5781 5780 5779 5778 5777 5775 5774 5772 5771 5769 5767 5765 5763 5761 5759 5756 5754 5751 5749 5746 5743 5741 5739 5736 5733 5730 5727 5724 5721 5718 5715 5712 5710 5707 5703 5700 5697 5694 5691 5689 5687 5683 5680 5678 5675 5669 5665 5662 5660 5659 5657 5655 5651 5647 5643 5638 5634 5631 5627 5623 5616 5611 5611 5606 5599 5600 5599 5592 5587 5583 5578 5574 5571 5566 5562 5557 5552 5547 5542 5538 5534
5784 5784 5784 5783 5783 5783 5782 5781 5780 5779 5778 5777 5775 5774 5772 5770 5769 5767 5765 5763 5761 5758 5756 5753 5751 5748 5746 5743 5740 5738 5735 5732 5730 5727 5724 5720 5717 5714 5711 5708 5705 5702 5699 5696 5693 5689 5686 5684 5681 5678 5676 5674 5668 5663 5659 5656 5654 5653 5652 5648 5643 5639 5634 5630 5627 5623 5617 5612 5610 5605 5599 5596 5596 5591 5585 5583 5578 5572 5569 5566 5561 5556 5551 5545 5539 5535 5531 5527
5784 5784 5784 5784 5783 5783 5782 5781 5780 5779 5778 5776 5775 5773 5772 5770 5768 5766 5764 5762 5760 5758 5755 5753 5750 5748 5745 5742 5740 5737 5734 5732 5729 5726 5723 5720 5717 5713 5710 5707 5704 5701 5697 5694 5691 5688 5684 5681 5678 5674 5673 5672 5667 5662 5658 5653 5650 5649 5648 5645 5639 5634 5630 5627 5624 5620 5613 5608 5605 5600 5593 5592 5593 5586 5579 5577 5573 5567 5564 5560 5555 5550 5544 5537 5532 5528 5524 5520
5784 5784 5784 5784 5783 5783 5782 5781 5780 5779 5778 5776 5775 5773 5771 5770 5768 5766 5764 5762 5760 5757 5755 5753 5750 5747 5745 5742 5739 5737 5734 5731 5728 5725 5722 5719 5716 5712 5709 5706 5702 5699 5696 5692 5689 5686 5682 5678 5675 5671 5669 5668 5665 5660 5656 5652 5648 5646 5643 5640 5635 5630 5626 5623 5621 5617 5610 5604 5600 5595 5589 5587 5586 5581 5575 5571 5567 5562 5558 5555 5550 5545 5537 5530 5526 5522 5518 5512
5784 5784 5784 5784 5783 5783 5782 5781 5780 5779 5777 5776 5774 5773 5771 5769 5768 5766 5764 5761 5759 5757 5754 5752 5750 5747 5744 5742 5739 5736 5733 5730 5727 5724 5721 5718 5715 5711 5708 5704 5701 5698 5694 5691 5687 5684 5680 5675 5672 5668 5665 5664 5661 5656 5652 5649 5645 5643 5639 5634 5629 5625 5621 5619 5617 5614 5607 5600 5594 5589 5586 5583 5579 5574 5569 5565 5561 5556 5553 5550 5545 5537 5530 5525 5520 5516 5511 5506